[[{"header":{"parameterUnit":"m.s-1","parameterCategory":2,"la1":30.2991,"la2":30.254,"lo1":-89.0895,"lo2":-89.0444,"dy":0.0017,"dx":0.0017,"nx":28,"ny":28,"refTime":"2025-07-23T09:00:00:Z","depth":"0","parameterNumber":2,"parameterNumberName":"U-component_of_CURRENTS"},"data":[0,0,0,0,0,0,0,0,0,0,0,0,0,0,0,0,0,0,0,0,0,0,0,0,0,0,0,0,0,0,0,0,0,0,0,0,0,0,0,0,0,0,0,0,0,0,0,0,0,0,0,0,0,0,0,0,0,0,0.4632,0.4633,0,0.4728,0.4729,0.473,0.4783,0.4783,0.4784,0.4784,0.4769,0.4768,0.4768,0,0,0,0,0,0,0,0,0,0,0,0,0,0.4506,0.4508,0.4632,0.4633,0.4634,0.4728,0.4729,0.4731,0.4783,0.4783,0.4784,0.4784,0.4769,0.4768,0.4768,0,0,0,0,0,0,0,0,0,0,0,0,0,0.4576,0.4509,0.4631,0.4673,0.4678,0.4728,0.4729,0.4731,0.4783,0.4783,0.4784,0.4784,0.4769,0.4768,0.4767,0.4753,0,0,0.4764,0.4764,0,0,0,0,0,0,0,0,0.4572,0.458,0.4666,0.467,0.4676,0.4746,0.468,0.4733,0.4783,0.4741,0.4784,0.4784,0.4751,0.4752,0.4769,0.4752,0.4751,0.4764,0.4764,0.4763,0.4763,0,0,0,0,0,0,0,0.4567,0.4577,0.4668,0.4667,0.4673,0.4692,0.4702,0.4691,0.4739,0.4745,0.4749,0.4763,0.4753,0.4769,0.4768,0.4751,0.4764,0.4763,0.4763,0.4762,0.4802,0.4803,0,0,0,0,0,0,0.4558,0.4572,0.4665,0.4671,0.4626,0.4694,0.4705,0.4721,0.4742,0.4747,0.4762,0.4765,0.4771,0.4769,0.4768,0.4807,0.4763,0.4762,0.4762,0.48,0.4802,0.4804,0,0,0,0,0,0,0.4555,0.4565,0.4661,0.4625,0.4639,0.4696,0.4714,0.4723,0.4745,0.4757,0.4759,0.4775,0.4771,0.4769,0.477,0.4804,0.4762,0.4761,0.4798,0.4801,0.4803,0.4849,0,0,0,0,0,0,0.4551,0.4563,0.4571,0.4624,0.464,0.4703,0.4714,0.4725,0.4753,0.4757,0.4768,0.4768,0.4771,0.4771,0.4769,0.4802,0.476,0.4796,0.4799,0.4802,0.4845,0.4853,0.4859,0,0,0,0,0,0.4546,0.457,0.457,0.4582,0.4649,0.4703,0.4714,0.4754,0.4753,0.4772,0.4775,0.4768,0.479,0.4771,0.4768,0.4802,0.4795,0.4798,0.4802,0.4842,0.4851,0.4859,0,0,0,0,0,0,0.4518,0.4579,0.4581,0.462,0.4657,0.4713,0.4739,0.4752,0.4771,0.477,0.477,0.477,0.4794,0.4785,0.4764,0.4826,0.4798,0.4802,0.483,0.4839,0.4845,0.4884,0.4759,0,0,0,0,0,0.4512,0.4546,0.4595,0.4622,0.4643,0.4682,0.4707,0.4731,0.4758,0.4768,0.4775,0.4786,0.4807,0.4809,0.4823,0.4834,0.491,0.4862,0.4869,0.4874,0.4906,0.508,0.5107,0.4816,0.4816,0.4816,0,0,0.4504,0.4544,0.456,0.4618,0.465,0.4696,0.4699,0.4743,0.4783,0.4758,0.4803,0.4804,0.4815,0.485,0.486,0.4843,0.4991,0.4879,0.4884,0.4914,0.5087,0.5116,0.5142,0.4819,0.4818,0.4818,0,0,0.4523,0.4544,0.4584,0.4621,0.4674,0.4705,0.4714,0.4767,0.4794,0.4816,0.4832,0.4853,0.4857,0.49,0.4913,0.496,0.5024,0.4962,0.5023,0.5191,0.5217,0.5242,0.5353,0.5387,0.4963,0.4963,0.4963,0,0.4516,0.4573,0.46,0.4652,0.47,0.4708,0.4769,0.4792,0.4836,0.4894,0.4834,0.4932,0.4893,0.5007,0.4999,0.4979,0.5077,0.4985,0.5204,0.523,0.5254,0.5362,0.5399,0.4966,0.4966,0.4965,0.4965,0,0.4563,0.4615,0.4645,0.4716,0.4763,0.4816,0.486,0.4906,0.4915,0.4959,0.5057,0.5026,0.5105,0.5078,0.5024,0.5189,0.5203,0.5197,0.5188,0.5287,0.5393,0.5431,0.497,0.4969,0.4968,0.4967,0,0,0.4557,0.4662,0.4673,0.4738,0.4812,0.4867,0.4941,0.5053,0.5141,0.5152,0.5289,0.5265,0.5281,0.5297,0.5272,0.5355,0.5533,0.5332,0.534,0.5451,0.5903,0.5729,0.5753,0.5592,0.56,0.5605,0.59,0,0.4598,0.4706,0.4753,0.487,0.4945,0.5006,0.5088,0.5183,0.5238,0.5356,0.5386,0.547,0.5362,0.5389,0.5471,0.553,0.5641,0.5453,0.5784,0.5793,0.5635,0.5794,0.5467,0.5688,0.5937,0.5944,0.5948,0,0.465,0.4723,0.4837,0.5002,0.5042,0.5104,0.5288,0.5361,0.552,0.5567,0.5685,0.571,0.5828,0.5699,0.5934,0.5835,0.5879,0.5906,0.592,0.5775,0.5691,0.5635,0.5748,0.5545,0.6007,0.6002,0.5998,0,0.4667,0.4807,0.4907,0.4953,0.5107,0.5195,0.5283,0.5439,0.5552,0.5719,0.5824,0.5978,0.6064,0.6181,0.6171,0.6108,0.6417,0.6355,0.6265,0.6253,0.6046,0.6001,0.6009,0.6571,0.657,0.6569,0.6569,0,0.4733,0.4825,0.4922,0.4978,0.5135,0.5228,0.5411,0.5514,0.5695,0.5854,0.5938,0.6084,0.6195,0.6344,0.633,0.6409,0.658,0.6328,0.6346,0.6042,0.5996,0.5863,0.5802,0.658,0.6578,0.6576,0.6574,0,0.4786,0.4828,0.4954,0.5092,0.5149,0.526,0.5479,0.5616,0.5765,0.5979,0.6047,0.6257,0.6422,0.6499,0.6677,0.6611,0.6487,0.6665,0.6254,0.6215,0.5877,0.5831,0.5774,0.5618,0.6657,0.6654,0.6653,0,0.4851,0.4908,0.5017,0.5088,0.516,0.5327,0.5457,0.5629,0.5777,0.6064,0.6183,0.6401,0.6509,0.67,0.6598,0.662,0.6435,0.6351,0.6142,0.5854,0.5822,0.5632,0.5492,0.5896,0.5888,0.5882,0.5877,0,0.4985,0.4979,0.5052,0.5158,0.5276,0.5416,0.5603,0.5707,0.5915,0.6058,0.6232,0.6331,0.6482,0.6324,0.6338,0.6302,0.5999,0.6217,0.607,0.536,0.5015,0.487,0.568,0.582,0.5825,0.583,0.5833,0.5835,0.5067,0.51,0.5139,0.5245,0.536,0.5442,0.5473,0.5637,0.5761,0.5854,0.6104,0.6098,0.6061,0.5993,0.5936,0.5546,0.5624,0.5319,0.5337,0.5207,0.4883,0.5525,0.5572,0.5576,0.558,0.5583,0.5585,0,0.5142,0.5151,0.5247,0.5287,0.5353,0.5411,0.5527,0.5463,0.5454,0.5602,0.5655,0.5505,0.5345,0.5259,0.4908,0.4679,0.4501,0.4538,0.4205,0.4153,0.4861,0.4642,0.4303,0.4303,0.4303,0.4303,0.4304,0.4304,0.5176,0.5205,0.5201,0.5247,0.5268,0.5189,0.5161,0.5049,0.5062,0.486,0.4717,0.4751,0.4696,0.4499,0.414,0.4037,0.3758,0.3545,0.3645,0.4118,0.419,0.4258,0.4035,0.3574,0.3574,0.2687,0.268,0.2675]},{"header":{"parameterUnit":"m.s-1","parameterCategory":2,"la1":30.2991,"la2":30.254,"lo1":-89.0895,"lo2":-89.0444,"dy":0.0017,"dx":0.0017,"nx":28,"ny":28,"refTime":"2025-07-23T09:00:00:Z","depth":"0","parameterNumber":3,"parameterNumberName":"V-component_of_CURRENTS"},"data":[0,0,0,0,0,0,0,0,0,0,0,0,0,0,0,0,0,0,0,0,0,0,0,0,0,0,0,0,0,0,0,0,0,0,0,0,0,0,0,0,0,0,0,0,0,0,0,0,0,0,0,0,0,0,0,0,0,0,0.0306,0.0305,0,0.0258,0.0258,0.0257,0.0195,0.0194,0.0194,0.0193,0.0092,0.009,0.0088,0,0,0,0,0,0,0,0,0,0,0,0,0,0.0271,0.0272,0.0306,0.0305,0.0305,0.0259,0.0258,0.0257,0.0195,0.0194,0.0194,0.0193,0.0093,0.009,0.0088,0,0,0,0,0,0,0,0,0,0,0,0,0,0.0257,0.0272,0.0306,0.0272,0.0269,0.0259,0.0258,0.0256,0.0195,0.0194,0.0193,0.0193,0.0093,0.009,0.0087,0.0087,0,0,0.0078,0.0076,0,0,0,0,0,0,0,0,0.0258,0.0258,0.0277,0.0274,0.0271,0.0235,0.0208,0.0198,0.0196,0.0219,0.0193,0.0192,0.0138,0.0131,0.012,0.0082,0.0078,0.0077,0.0075,0.0074,0.0073,0,0,0,0,0,0,0,0.0259,0.026,0.0283,0.0277,0.0273,0.0235,0.0232,0.0206,0.018,0.0217,0.0213,0.0215,0.0135,0.0123,0.0117,0.0076,0.0077,0.0075,0.0073,0.0071,0.0019,0.002,0,0,0,0,0,0,0.0279,0.0261,0.0284,0.0282,0.0267,0.0237,0.0234,0.0244,0.0182,0.0173,0.0216,0.0212,0.0129,0.012,0.0113,0.0133,0.0074,0.0071,0.0069,0.0019,0.002,0.002,0,0,0,0,0,0,0.0278,0.0281,0.0286,0.0273,0.0271,0.024,0.0251,0.0244,0.0234,0.0182,0.0171,0.0214,0.0128,0.0117,0.0098,0.0128,0.007,0.0067,0.0018,0.0019,0.002,0.0158,0,0,0,0,0,0,0.0277,0.0282,0.0291,0.0275,0.0273,0.0295,0.0252,0.0244,0.0238,0.0233,0.0178,0.0167,0.0126,0.0103,0.0095,0.0122,0.0064,0.0018,0.0019,0.002,0.0153,0.0163,0.0172,0,0,0,0,0,0.0277,0.0307,0.0292,0.0295,0.0289,0.0296,0.0292,0.0262,0.024,0.0247,0.0206,0.0169,0.0103,0.0102,0.0092,0.0119,0.0017,0.0018,0.002,0.0148,0.0161,0.0172,0,0,0,0,0,0,0.0297,0.0303,0.0287,0.0316,0.031,0.0288,0.0292,0.0272,0.0246,0.0236,0.0181,0.0168,0.0155,0.0116,0.0117,0.0102,0.0052,0.0051,0.0153,0.0164,0.0174,0.0231,0.0062,0,0,0,0,0,0.0308,0.0329,0.0322,0.0344,0.0345,0.0318,0.0315,0.0298,0.0276,0.0263,0.0226,0.0183,0.0152,0.0144,0.0102,0.0108,0.0117,0.0113,0.0123,0.0132,0.0169,0.0216,0.0235,0.0024,0.0024,0.0024,0,0,0.0321,0.0327,0.0337,0.0349,0.0338,0.0364,0.0313,0.0321,0.0342,0.0257,0.0267,0.0211,0.0156,0.0154,0.0146,0.013,0.0195,0.0134,0.0142,0.0175,0.0219,0.0241,0.026,0.0025,0.0025,0.0024,0,0,0.0375,0.0364,0.0406,0.0408,0.0408,0.0396,0.0405,0.0389,0.0379,0.0377,0.0321,0.0302,0.0245,0.0234,0.0214,0.0257,0.0235,0.0222,0.0336,0.0381,0.04,0.0418,0.0459,0.0479,0.0241,0.0241,0.0241,0,0.0388,0.0446,0.0417,0.0457,0.0478,0.0421,0.0477,0.0458,0.0437,0.0461,0.0394,0.0364,0.0294,0.0342,0.0333,0.0287,0.0304,0.0301,0.0401,0.0417,0.0433,0.0471,0.0491,0.0248,0.0247,0.0247,0.0246,0,0.0476,0.0519,0.0543,0.058,0.0592,0.0627,0.061,0.0618,0.0588,0.0582,0.0604,0.052,0.0526,0.0475,0.0405,0.0482,0.0456,0.0402,0.0386,0.0464,0.0497,0.0516,0.0258,0.0255,0.0253,0.0252,0,0,0.0522,0.0597,0.0604,0.0661,0.0667,0.07,0.0734,0.0783,0.0849,0.0788,0.089,0.0786,0.076,0.0736,0.0662,0.0669,0.0752,0.0583,0.0582,0.0652,0.0862,0.0757,0.0766,0.072,0.0724,0.0727,0.0845,0,0.0605,0.0728,0.0735,0.0848,0.0916,0.0893,0.0948,0.0973,0.0973,0.1046,0.0985,0.1023,0.0857,0.0873,0.0858,0.0789,0.0807,0.0726,0.0752,0.0754,0.0674,0.0786,0.0735,0.0829,0.0863,0.0866,0.0868,0,0.0694,0.0774,0.0909,0.1032,0.106,0.1111,0.1221,0.1262,0.1324,0.1329,0.1359,0.1316,0.1337,0.1169,0.1142,0.1101,0.0999,0.0921,0.0924,0.0798,0.0683,0.0751,0.0861,0.0625,0.0896,0.0894,0.0892,0,0.0767,0.0901,0.1026,0.1058,0.117,0.1239,0.1294,0.1361,0.1429,0.1534,0.1609,0.1615,0.1649,0.1541,0.1345,0.1272,0.1305,0.1195,0.1016,0.1008,0.0958,0.0937,0.087,0.1192,0.1192,0.1192,0.1191,0,0.0859,0.0958,0.1079,0.1144,0.1302,0.1348,0.1501,0.1554,0.1668,0.1802,0.1774,0.1887,0.1738,0.1714,0.15,0.1337,0.1443,0.1082,0.1048,0.0998,0.098,0.0761,0.0622,0.1196,0.1195,0.1194,0.1193,0,0.0901,0.0982,0.1131,0.1284,0.1337,0.1443,0.1595,0.1707,0.1814,0.1999,0.2052,0.2135,0.2129,0.1946,0.1809,0.1558,0.1249,0.1291,0.1233,0.1188,0.0753,0.0624,0.0549,0.0447,0.1151,0.1149,0.1148,0,0.0936,0.1018,0.1203,0.129,0.1359,0.1512,0.1617,0.1748,0.1881,0.2143,0.226,0.2348,0.2433,0.2212,0.1818,0.1516,0.125,0.1207,0.1028,0.0765,0.0598,0.0506,0.042,0.103,0.1027,0.1026,0.1024,0,0.099,0.1048,0.1168,0.1332,0.1464,0.1621,0.18,0.193,0.2131,0.2331,0.2603,0.2719,0.2544,0.2258,0.1815,0.1545,0.1019,0.1153,0.0926,0.0545,0.0406,0.028,0.0907,0.1008,0.1009,0.1011,0.1011,0.1012,0.1016,0.1091,0.1233,0.1388,0.1538,0.1733,0.189,0.2115,0.2377,0.2742,0.283,0.3085,0.2601,0.202,0.1642,0.0858,0.0896,0.0593,0.0481,0.0431,0.0253,0.0827,0.0835,0.0836,0.0836,0.0837,0.0837,0,0.1051,0.1141,0.1277,0.1483,0.1643,0.1723,0.2016,0.2216,0.2559,0.2923,0.3189,0.3091,0.2487,0.184,0.0778,0.0275,0.0106,0.0011,-0.0118,-0.0158,0.0406,0.0313,0.0155,0.0155,0.0155,0.0156,0.0156,0.0156,0.1076,0.1201,0.1267,0.1527,0.1678,0.1936,0.2119,0.2442,0.276,0.3182,0.3382,0.3509,0.2881,0.1108,-0.0049,-0.029,-0.062,-0.0704,-0.0824,-0.0468,-0.0422,-0.0379,-0.0498,-0.0824,-0.0825,-0.1342,-0.1347,-0.1352]}],[{"header":{"parameterUnit":"m.s-1","parameterCategory":2,"la1":30.2991,"la2":30.254,"lo1":-89.0895,"lo2":-89.0444,"dy":0.0017,"dx":0.0017,"nx":28,"ny":28,"refTime":"2025-07-23T09:00:00:Z","depth":"2","parameterNumber":2,"parameterNumberName":"U-component_of_CURRENTS"},"data":[0,0,0,0,0,0,0,0,0,0,0,0,0,0,0,0,0,0,0,0,0,0,0,0,0,0,0,0,0,0,0,0,0,0,0,0,0,0,0,0,0,0,0,0,0,0,0,0,0,0,0,0,0,0,0,0,0,0,0.3322,0.3324,0,0.3355,0.3354,0.3353,0.3328,0.3329,0.333,0.3331,0.342,0.3421,0.3423,0,0,0,0,0,0,0,0,0,0,0,0,0,0.3159,0.3161,0.3322,0.3325,0.3327,0.3355,0.3354,0.3352,0.3328,0.3329,0.333,0.3331,0.3419,0.3421,0.3423,0,0,0,0,0,0,0,0,0,0,0,0,0,0.3195,0.3161,0.3322,0.3333,0.3336,0.3356,0.3354,0.3352,0.3328,0.3329,0.333,0.3332,0.3418,0.3421,0.3423,0.3414,0,0,0.343,0.3432,0,0,0,0,0,0,0,0,0.3193,0.3199,0.3329,0.3333,0.3336,0.3357,0.333,0.3383,0.3328,0.3309,0.3331,0.3332,0.3416,0.3419,0.3392,0.3418,0.3422,0.3431,0.3432,0.3433,0.3434,0,0,0,0,0,0,0,0.3191,0.3197,0.3314,0.3332,0.3337,0.3311,0.3316,0.3337,0.3341,0.3311,0.3314,0.335,0.3416,0.339,0.3395,0.3423,0.3431,0.3433,0.3434,0.3435,0.3523,0.3524,0,0,0,0,0,0,0.3231,0.3195,0.3314,0.3318,0.3289,0.3315,0.3319,0.3332,0.3339,0.3347,0.3349,0.335,0.3385,0.3392,0.3398,0.3497,0.3433,0.3435,0.3437,0.3522,0.3523,0.3524,0,0,0,0,0,0,0.3227,0.324,0.3313,0.3274,0.3285,0.3319,0.3332,0.3333,0.3326,0.3372,0.3376,0.3347,0.3386,0.3395,0.3468,0.3497,0.3437,0.3439,0.3521,0.3522,0.3524,0.3626,0,0,0,0,0,0,0.3221,0.3237,0.3246,0.3277,0.3289,0.3343,0.3333,0.3333,0.3355,0.3355,0.3372,0.338,0.3388,0.3465,0.347,0.3499,0.3441,0.352,0.3522,0.3523,0.3622,0.3631,0.3639,0,0,0,0,0,0.3215,0.3235,0.3245,0.326,0.3303,0.3346,0.3346,0.3361,0.3355,0.3354,0.3394,0.338,0.3477,0.3469,0.3475,0.3505,0.3519,0.3521,0.3523,0.3618,0.3629,0.3639,0,0,0,0,0,0,0.3186,0.3238,0.3248,0.3288,0.3325,0.335,0.3365,0.3367,0.3385,0.34,0.3412,0.3424,0.3501,0.348,0.347,0.353,0.3487,0.349,0.3556,0.3567,0.3575,0.357,0.3443,0,0,0,0,0,0.3184,0.3197,0.3257,0.3288,0.3312,0.3332,0.3348,0.3367,0.3403,0.3408,0.3429,0.3455,0.3505,0.3522,0.3557,0.359,0.3617,0.3603,0.3612,0.3619,0.3617,0.3748,0.3771,0.3531,0.3531,0.3531,0,0,0.3185,0.3219,0.3227,0.3281,0.3304,0.3346,0.3339,0.3385,0.3419,0.3422,0.3467,0.3504,0.3527,0.3585,0.3611,0.3576,0.3693,0.3622,0.3629,0.3622,0.3753,0.3777,0.3799,0.3532,0.3532,0.3532,0,0,0.3196,0.3223,0.3236,0.3276,0.3343,0.3364,0.3385,0.3425,0.344,0.3502,0.3524,0.3579,0.3621,0.365,0.367,0.3735,0.3753,0.3734,0.3761,0.389,0.3912,0.3932,0.3971,0.3994,0.3718,0.3718,0.3718,0,0.3192,0.3234,0.325,0.3291,0.3346,0.3377,0.3429,0.3445,0.3504,0.3546,0.3536,0.3643,0.3651,0.3744,0.3755,0.3757,0.3815,0.3729,0.3907,0.3928,0.3946,0.3981,0.4005,0.3723,0.3723,0.3722,0.3722,0,0.3227,0.3267,0.3292,0.3346,0.3389,0.3452,0.3508,0.3552,0.3584,0.3613,0.3719,0.3742,0.3811,0.3806,0.3799,0.392,0.3913,0.3929,0.3893,0.3978,0.4007,0.403,0.3731,0.3729,0.3727,0.3726,0,0,0.321,0.3294,0.3308,0.3339,0.344,0.3472,0.3563,0.3652,0.3711,0.3762,0.3854,0.3903,0.3926,0.3945,0.3951,0.4013,0.4164,0.4018,0.4023,0.4073,0.4419,0.4238,0.4244,0.4251,0.4256,0.426,0.4378,0,0.3241,0.3313,0.3362,0.3439,0.3486,0.357,0.3638,0.3721,0.3792,0.3881,0.3938,0.4016,0.3978,0.4021,0.4097,0.4171,0.4235,0.4127,0.4312,0.4314,0.4161,0.4269,0.3928,0.3992,0.4401,0.4404,0.4407,0,0.3265,0.3315,0.34,0.3487,0.3517,0.3572,0.3713,0.3775,0.3919,0.3988,0.4104,0.4148,0.4257,0.4208,0.4391,0.4345,0.4386,0.4411,0.4419,0.4229,0.4177,0.3977,0.4018,0.4445,0.4442,0.4439,0.4437,0,0.3236,0.3335,0.3402,0.3443,0.3553,0.3619,0.3681,0.3815,0.3884,0.4065,0.4152,0.43,0.4386,0.45,0.4541,0.4513,0.4724,0.4701,0.4564,0.455,0.4275,0.4227,0.4838,0.4838,0.4838,0.4838,0.4837,0,0.3257,0.3301,0.339,0.3433,0.3494,0.359,0.3693,0.3781,0.3947,0.4034,0.4194,0.4291,0.4477,0.4599,0.4628,0.4662,0.4819,0.4582,0.4591,0.4291,0.4246,0.4647,0.4623,0.4842,0.4841,0.484,0.4839,0,0.3221,0.3286,0.3346,0.3461,0.3477,0.3524,0.366,0.3738,0.3912,0.4049,0.4116,0.4347,0.4518,0.4642,0.4818,0.4749,0.4801,0.4767,0.4347,0.4302,0.4509,0.4489,0.4639,0.4634,0.463,0.4627,0.4624,0,0.3207,0.3248,0.3328,0.3353,0.3407,0.3491,0.3541,0.3696,0.3763,0.4044,0.4076,0.433,0.4417,0.4598,0.4594,0.4632,0.4757,0.4282,0.414,0.4506,0.4502,0.4488,0.4473,0.3813,0.3804,0.3796,0.379,0,0.3193,0.323,0.3278,0.3302,0.3344,0.338,0.3447,0.3503,0.3693,0.3815,0.3975,0.4083,0.4269,0.4164,0.4211,0.4175,0.4248,0.4121,0.4704,0.3893,0.3732,0.3724,0.3738,0.3722,0.3729,0.3734,0.3738,0.374,0.3169,0.318,0.3221,0.3218,0.3255,0.3234,0.3234,0.3338,0.3402,0.3524,0.3711,0.3758,0.3827,0.3725,0.363,0.3587,0.3866,0.3682,0.3706,0.3737,0.3597,0.3436,0.3341,0.3345,0.3349,0.3352,0.3355,0,0.3118,0.3118,0.3124,0.309,0.3047,0.3123,0.3125,0.3077,0.3102,0.3248,0.3334,0.3068,0.3002,0.3114,0.2927,0.2884,0.2856,0.2775,0.273,0.2801,0.2863,0.2677,0.2178,0.2174,0.217,0.2166,0,0,0.3089,0.3016,0.2967,0.2816,0.2859,0.2774,0.2762,0.2697,0.2706,0.2666,0.2678,0.2888,0.2997,0.2553,0.2492,0.2311,0.2531,0.2212,0.3166,0.3185,0.3241,0.3403,0.3198,0,0,0,0,0]},{"header":{"parameterUnit":"m.s-1","parameterCategory":2,"la1":30.2991,"la2":30.254,"lo1":-89.0895,"lo2":-89.0444,"dy":0.0017,"dx":0.0017,"nx":28,"ny":28,"refTime":"2025-07-23T09:00:00:Z","depth":"2","parameterNumber":3,"parameterNumberName":"V-component_of_CURRENTS"},"data":[0,0,0,0,0,0,0,0,0,0,0,0,0,0,0,0,0,0,0,0,0,0,0,0,0,0,0,0,0,0,0,0,0,0,0,0,0,0,0,0,0,0,0,0,0,0,0,0,0,0,0,0,0,0,0,0,0,0,0.0304,0.0304,0,0.0271,0.0271,0.027,0.0234,0.0233,0.0233,0.0233,0.0151,0.015,0.0148,0,0,0,0,0,0,0,0,0,0,0,0,0,0.0262,0.0263,0.0304,0.0304,0.0304,0.0271,0.0271,0.027,0.0234,0.0233,0.0233,0.0233,0.0152,0.015,0.0148,0,0,0,0,0,0,0,0,0,0,0,0,0,0.0257,0.0264,0.0304,0.0284,0.0282,0.0271,0.0271,0.027,0.0234,0.0233,0.0233,0.0233,0.0153,0.015,0.0147,0.0137,0,0,0.0138,0.0137,0,0,0,0,0,0,0,0,0.0258,0.0258,0.0287,0.0286,0.0284,0.0259,0.0226,0.0224,0.0234,0.0249,0.0233,0.0232,0.0185,0.018,0.0171,0.0133,0.0129,0.0138,0.0136,0.0135,0.0134,0,0,0,0,0,0,0,0.0258,0.0259,0.0288,0.0287,0.0285,0.0252,0.0251,0.0225,0.0216,0.0248,0.0246,0.0247,0.0183,0.0173,0.0168,0.0128,0.0138,0.0136,0.0134,0.0133,0.0075,0.0075,0,0,0,0,0,0,0.0273,0.026,0.0289,0.0288,0.0273,0.0253,0.0252,0.0265,0.0218,0.0211,0.0247,0.0245,0.0179,0.0172,0.0165,0.017,0.0135,0.0132,0.0131,0.0075,0.0075,0.0075,0,0,0,0,0,0,0.0272,0.0276,0.0291,0.0274,0.0274,0.0255,0.0269,0.0264,0.0259,0.0218,0.021,0.0248,0.0178,0.0169,0.0149,0.0166,0.0131,0.0128,0.0074,0.0075,0.0075,0.0167,0,0,0,0,0,0,0.0271,0.0276,0.0287,0.0276,0.0276,0.0294,0.0269,0.0264,0.0261,0.0259,0.0216,0.0208,0.0177,0.0154,0.0146,0.0161,0.0126,0.0074,0.0075,0.0075,0.0164,0.0171,0.0177,0,0,0,0,0,0.027,0.0296,0.0288,0.0291,0.0293,0.0295,0.0291,0.0273,0.0262,0.0265,0.0236,0.0209,0.0151,0.0152,0.0143,0.0158,0.0074,0.0074,0.0075,0.0161,0.017,0.0176,0,0,0,0,0,0,0.0281,0.0295,0.0286,0.0313,0.0306,0.029,0.0294,0.028,0.026,0.0256,0.0214,0.0204,0.0189,0.0159,0.0161,0.014,0.0107,0.0106,0.0176,0.0183,0.0189,0.0216,0.0124,0,0,0,0,0,0.0289,0.0313,0.031,0.0329,0.033,0.0311,0.0309,0.0298,0.0281,0.0272,0.0245,0.0212,0.0184,0.0173,0.0141,0.0135,0.0103,0.0135,0.0142,0.0147,0.0162,0.0138,0.0144,0.0077,0.0077,0.0077,0,0,0.0296,0.0308,0.0319,0.0332,0.0324,0.0341,0.0308,0.0314,0.0325,0.0266,0.0271,0.0231,0.0184,0.0175,0.0166,0.0155,0.0146,0.0148,0.0154,0.0165,0.0139,0.0146,0.0152,0.0077,0.0077,0.0077,0,0,0.0329,0.0334,0.0365,0.0368,0.0371,0.0363,0.0369,0.0359,0.0351,0.0346,0.0307,0.0282,0.0242,0.0219,0.02,0.022,0.0176,0.0206,0.0268,0.0245,0.0251,0.0256,0.0213,0.0213,0.0215,0.0216,0.0216,0,0.0334,0.038,0.037,0.0399,0.0414,0.038,0.0414,0.04,0.0384,0.0387,0.0358,0.0307,0.0265,0.026,0.0267,0.0237,0.0211,0.0248,0.0256,0.026,0.0263,0.0218,0.0217,0.022,0.022,0.0219,0.0219,0,0.0391,0.0424,0.0443,0.0475,0.0483,0.0506,0.0495,0.0497,0.0479,0.0466,0.0452,0.0392,0.0366,0.0344,0.0312,0.032,0.0288,0.0264,0.0244,0.0276,0.0225,0.0223,0.0227,0.0225,0.0224,0.0222,0,0,0.0416,0.0475,0.0481,0.052,0.0531,0.0553,0.0567,0.0582,0.0607,0.0561,0.0588,0.0523,0.0489,0.0464,0.0416,0.0396,0.0386,0.0352,0.0349,0.0323,0.0326,0.0267,0.0258,0.0371,0.0372,0.0372,0.0276,0,0.0465,0.0554,0.056,0.0635,0.0684,0.0665,0.0687,0.0689,0.0676,0.0689,0.0621,0.0619,0.0535,0.0533,0.0494,0.0426,0.0386,0.0413,0.0287,0.0283,0.0238,0.0256,0.0282,0.0197,0.0274,0.0273,0.0273,0,0.0521,0.0583,0.0674,0.0747,0.0764,0.0792,0.084,0.0857,0.0848,0.0838,0.0809,0.0755,0.0717,0.0641,0.0524,0.0549,0.0444,0.0374,0.0368,0.0284,0.022,0.0177,0.0189,0.0268,0.0269,0.0269,0.0269,0,0.0573,0.0662,0.0748,0.0773,0.0839,0.0871,0.0898,0.0906,0.095,0.0944,0.0973,0.0888,0.0876,0.074,0.0577,0.056,0.0443,0.0395,0.0231,0.0224,0.0206,0.0198,0.03,0.03,0.0301,0.0301,0.0301,0,0.0637,0.0705,0.0785,0.0835,0.0936,0.0949,0.1041,0.1045,0.1085,0.1161,0.1063,0.1099,0.0907,0.0809,0.0629,0.0429,0.0473,0.0246,0.0204,0.0235,0.0231,0.0263,0.026,0.0297,0.0298,0.0299,0.0299,0,0.0682,0.0731,0.0845,0.0938,0.0967,0.1044,0.1149,0.1232,0.1235,0.1333,0.1345,0.1278,0.1157,0.0933,0.0723,0.0515,0.0319,0.0228,0.0265,0.0228,0.0095,0.0098,0.0034,0.0032,0.0029,0.0027,0.0026,0,0.0716,0.0785,0.092,0.1001,0.1048,0.1161,0.1256,0.1306,0.1406,0.1451,0.1522,0.1426,0.1368,0.1014,0.0678,0.034,0.0308,0.0107,0.0066,0.0107,0.0071,0.0078,0.0083,0.0069,0.0068,0.0067,0.0066,0,0.0794,0.0841,0.0932,0.1095,0.1218,0.1367,0.1498,0.159,0.1667,0.1747,0.1819,0.1763,0.1419,0.1087,0.0602,0.0369,0.0161,0.0074,0.0134,0.013,0.0131,0.0099,0.0105,0.0058,0.0059,0.006,0.006,0.006,0.0851,0.0925,0.1048,0.12,0.1354,0.1543,0.1677,0.183,0.199,0.2087,0.2019,0.1931,0.1514,0.0901,0.0506,0.01,0.0114,-0.006,-0.0053,-0.0046,-0.0027,-0.003,-0.0131,-0.0131,-0.0132,-0.0132,-0.0132,0,0.0929,0.101,0.1149,0.1355,0.1543,0.16,0.183,0.1962,0.2168,0.2219,0.2245,0.1802,0.1397,0.0949,0.034,-0.0058,-0.0068,-0.018,-0.0099,-0.0089,-0.0081,-0.0061,-0.0176,-0.0177,-0.0178,-0.0179,0,0,0.0968,0.1106,0.1167,0.1467,0.162,0.1874,0.2003,0.2176,0.226,0.2293,0.2227,0.2072,0.1502,0.1046,0.0533,0.0192,0.0143,0.0118,0.0191,0.0357,0.0371,0.002,0.0065,0,0,0,0,0]}],[{"header":{"parameterUnit":"m.s-1","parameterCategory":2,"la1":30.2991,"la2":30.254,"lo1":-89.0895,"lo2":-89.0444,"dy":0.0017,"dx":0.0017,"nx":28,"ny":28,"refTime":"2025-07-23T09:00:00:Z","depth":"4","parameterNumber":2,"parameterNumberName":"U-component_of_CURRENTS"},"data":[0,0,0,0,0,0,0,0,0,0,0,0,0,0,0,0,0,0,0,0,0,0,0,0,0,0,0,0,0,0,0,0,0,0,0,0,0,0,0,0,0,0,0,0,0,0,0,0,0,0,0,0,0,0,0,0,0,0,0.1824,0.1825,0,0.1853,0.1853,0.1853,0.1846,0.1846,0.1846,0.1845,0.1916,0.1918,0.192,0,0,0,0,0,0,0,0,0,0,0,0,0,0.1776,0.1776,0.1824,0.1825,0.1826,0.1853,0.1853,0.1853,0.1846,0.1846,0.1846,0.1845,0.1916,0.1918,0.1921,0,0,0,0,0,0,0,0,0,0,0,0,0,0.1796,0.1776,0.1824,0.1828,0.1829,0.1853,0.1853,0.1853,0.1846,0.1846,0.1845,0.1845,0.1915,0.1918,0.1921,0.1947,0,0,0.193,0.1932,0,0,0,0,0,0,0,0,0.1795,0.1798,0.1827,0.1828,0.1829,0.1848,0.1862,0.1888,0.1846,0.1836,0.1845,0.1845,0.19,0.1904,0.1905,0.195,0.1953,0.1931,0.1933,0.1934,0.1935,0,0,0,0,0,0,0,0.1794,0.1797,0.1832,0.1828,0.1829,0.1833,0.1835,0.1866,0.1868,0.1837,0.1837,0.1846,0.19,0.1902,0.1907,0.1955,0.1931,0.1933,0.1935,0.1937,0.2108,0.211,0,0,0,0,0,0,0.1797,0.1795,0.1831,0.1833,0.1815,0.1834,0.1836,0.184,0.1866,0.1871,0.1846,0.1846,0.1897,0.1903,0.1909,0.2005,0.1934,0.1937,0.1939,0.2105,0.2108,0.2111,0,0,0,0,0,0,0.1796,0.18,0.183,0.1818,0.1822,0.1835,0.1839,0.1841,0.1871,0.1874,0.1878,0.1879,0.1897,0.1905,0.1968,0.2005,0.1938,0.1941,0.2102,0.2106,0.211,0.2156,0,0,0,0,0,0,0.1794,0.1799,0.1816,0.1818,0.1823,0.1864,0.184,0.1841,0.1877,0.1877,0.1904,0.1908,0.1897,0.1964,0.1971,0.2008,0.1944,0.2099,0.2104,0.2109,0.2151,0.2161,0.217,0,0,0,0,0,0.1792,0.1798,0.1817,0.1822,0.1842,0.1866,0.1869,0.1874,0.1879,0.19,0.1924,0.1908,0.2001,0.1969,0.1977,0.2015,0.2096,0.2102,0.2108,0.2147,0.2159,0.217,0,0,0,0,0,0,0.1783,0.1799,0.1819,0.1831,0.1864,0.1866,0.1886,0.1899,0.1933,0.1948,0.1943,0.195,0.2017,0.2022,0.1986,0.2083,0.2047,0.2055,0.2074,0.2085,0.2094,0.2116,0.1946,0,0,0,0,0,0.1794,0.1811,0.1832,0.1855,0.187,0.1892,0.1909,0.1925,0.1949,0.1964,0.1987,0.2018,0.2045,0.2069,0.2096,0.2155,0.217,0.2188,0.2197,0.2205,0.2232,0.2302,0.2319,0.2131,0.2131,0.2131,0,0,0.1799,0.1815,0.1824,0.1858,0.1881,0.1903,0.1901,0.1944,0.1972,0.197,0.2027,0.2057,0.207,0.2126,0.2157,0.2136,0.2262,0.2213,0.2218,0.2242,0.231,0.2328,0.2344,0.2135,0.2134,0.2134,0,0,0.1807,0.1834,0.1848,0.1877,0.1929,0.1941,0.1965,0.2003,0.2028,0.2093,0.2095,0.2157,0.2201,0.2219,0.2229,0.2316,0.2309,0.2327,0.239,0.2457,0.2473,0.2487,0.2499,0.2514,0.233,0.233,0.233,0,0.1815,0.1835,0.1861,0.1885,0.1916,0.1961,0.1992,0.2019,0.208,0.2127,0.2123,0.2233,0.2243,0.2308,0.2335,0.2336,0.236,0.2336,0.2468,0.2483,0.2496,0.2506,0.2522,0.2333,0.2333,0.2332,0.2332,0,0.1827,0.1857,0.1872,0.1915,0.1954,0.1994,0.2038,0.2099,0.2148,0.2187,0.2294,0.2323,0.2395,0.2401,0.2392,0.2498,0.2477,0.2468,0.2433,0.2518,0.2522,0.2538,0.2337,0.2336,0.2335,0.2334,0,0,0.1802,0.1864,0.1875,0.1905,0.198,0.2007,0.208,0.2158,0.2218,0.23,0.2382,0.2451,0.2507,0.2525,0.2535,0.2591,0.2687,0.2582,0.2584,0.2581,0.2814,0.2611,0.2608,0.2709,0.2712,0.2716,0.2764,0,0.1809,0.185,0.1891,0.1948,0.1971,0.2052,0.2105,0.2195,0.2279,0.2369,0.2446,0.2529,0.2536,0.2589,0.2652,0.2693,0.2739,0.2674,0.2744,0.2746,0.2546,0.2623,0.2728,0.2776,0.278,0.2782,0.2784,0,0.18,0.1834,0.1886,0.1966,0.1987,0.2038,0.2167,0.2224,0.2362,0.244,0.2569,0.2626,0.2749,0.2723,0.2862,0.2828,0.284,0.2849,0.2851,0.2664,0.2574,0.2684,0.2812,0.281,0.2808,0.2806,0.2804,0,0.1752,0.1827,0.1873,0.1901,0.1994,0.2062,0.2129,0.2266,0.2334,0.2511,0.2589,0.274,0.282,0.29,0.2947,0.293,0.3056,0.3023,0.2841,0.2825,0.297,0.2954,0.311,0.311,0.311,0.3109,0.3109,0,0.1717,0.175,0.1861,0.1881,0.1944,0.2043,0.2138,0.2237,0.239,0.2471,0.2632,0.2708,0.2879,0.2961,0.2988,0.2963,0.3101,0.2871,0.284,0.2982,0.2969,0.2978,0.2962,0.3111,0.3111,0.311,0.311,0,0.1629,0.1704,0.1754,0.1877,0.1914,0.1968,0.2113,0.217,0.2353,0.2467,0.2534,0.2731,0.2851,0.2955,0.3068,0.2985,0.2993,0.2937,0.3068,0.3041,0.2702,0.2688,0.2749,0.2743,0.2737,0.2733,0.2729,0,0.1572,0.1593,0.1723,0.1745,0.1802,0.1896,0.1936,0.2127,0.2192,0.2445,0.2468,0.2664,0.277,0.2773,0.2895,0.2928,0.2888,0.285,0.2794,0.2709,0.2674,0.2669,0.2663,0.2721,0.2719,0.2718,0.2716,0,0.1459,0.1531,0.1579,0.1626,0.1683,0.1722,0.1816,0.1858,0.2072,0.2258,0.2374,0.246,0.2566,0.2662,0.2701,0.2715,0.2864,0.2793,0.2804,0.2751,0.2674,0.2644,0.2644,0.2698,0.27,0.2702,0.2703,0,0.1377,0.1391,0.1464,0.149,0.1539,0.1535,0.1609,0.1694,0.18,0.21,0.2129,0.2346,0.2542,0.2547,0.2585,0.2592,0.2553,0.2452,0.2479,0.2501,0.2397,0.2262,0.2149,0,0,0,0,0,0.1284,0.1285,0.1302,0.1327,0.1361,0.1392,0.1506,0.1595,0.1815,0.1841,0.1998,0.21,0.2208,0.2309,0.2269,0.2442,0.2535,0.2378,0.2425,0.2593,0.2615,0.2515,0,0,0,0,0,0,0.1222,0.1246,0.1262,0.1177,0.1154,0.1178,0.1251,0.1396,0.1431,0.1679,0.1755,0.1945,0.2079,0.2219,0.2224,0.2251,0.2228,0.2516,0.2509,0.2581,0.2601,0.2618,0.2523,0,0,0,0,0]},{"header":{"parameterUnit":"m.s-1","parameterCategory":2,"la1":30.2991,"la2":30.254,"lo1":-89.0895,"lo2":-89.0444,"dy":0.0017,"dx":0.0017,"nx":28,"ny":28,"refTime":"2025-07-23T09:00:00:Z","depth":"4","parameterNumber":3,"parameterNumberName":"V-component_of_CURRENTS"},"data":[0,0,0,0,0,0,0,0,0,0,0,0,0,0,0,0,0,0,0,0,0,0,0,0,0,0,0,0,0,0,0,0,0,0,0,0,0,0,0,0,0,0,0,0,0,0,0,0,0,0,0,0,0,0,0,0,0,0,0.0254,0.0254,0,0.0235,0.0234,0.0234,0.0222,0.0223,0.0223,0.0223,0.019,0.0189,0.0188,0,0,0,0,0,0,0,0,0,0,0,0,0,0.0216,0.0217,0.0254,0.0254,0.0254,0.0235,0.0234,0.0234,0.0222,0.0223,0.0223,0.0223,0.019,0.0189,0.0188,0,0,0,0,0,0,0,0,0,0,0,0,0,0.0215,0.0217,0.0254,0.0249,0.0248,0.0235,0.0234,0.0234,0.0222,0.0223,0.0223,0.0223,0.0191,0.0189,0.0188,0.017,0,0,0.0182,0.0182,0,0,0,0,0,0,0,0,0.0215,0.0216,0.025,0.0249,0.0249,0.0234,0.0209,0.0213,0.0222,0.0229,0.0223,0.0224,0.0205,0.0202,0.0194,0.0169,0.0167,0.0182,0.0181,0.0181,0.018,0,0,0,0,0,0,0,0.0216,0.0217,0.0243,0.025,0.0249,0.0225,0.0225,0.0209,0.0213,0.0228,0.0228,0.0231,0.0204,0.0195,0.0193,0.0167,0.0182,0.0181,0.018,0.0179,0.0139,0.0139,0,0,0,0,0,0,0.0228,0.0217,0.0244,0.0243,0.0236,0.0226,0.0226,0.0236,0.0213,0.0211,0.0231,0.0231,0.0198,0.0195,0.0192,0.0198,0.0181,0.0179,0.0178,0.0139,0.0139,0.0139,0,0,0,0,0,0,0.0227,0.023,0.0245,0.0232,0.0232,0.0227,0.0237,0.0235,0.0235,0.0216,0.0213,0.0234,0.0198,0.0194,0.019,0.0195,0.0178,0.0177,0.0139,0.0139,0.0139,0.0192,0,0,0,0,0,0,0.0226,0.023,0.024,0.0233,0.0234,0.0248,0.0237,0.0235,0.0237,0.0237,0.0217,0.0214,0.0198,0.0193,0.0188,0.0193,0.0175,0.014,0.0139,0.0139,0.019,0.0193,0.0196,0,0,0,0,0,0.0225,0.0243,0.0241,0.0244,0.0248,0.0249,0.0247,0.0241,0.0238,0.0241,0.023,0.0215,0.0188,0.0192,0.0186,0.019,0.014,0.0139,0.0139,0.0189,0.0193,0.0196,0,0,0,0,0,0,0.0229,0.0243,0.0241,0.0262,0.026,0.0249,0.0253,0.0247,0.0239,0.0241,0.0219,0.0215,0.0211,0.0192,0.0196,0.0176,0.0159,0.0158,0.0198,0.0202,0.0205,0.0212,0.0174,0,0,0,0,0,0.0235,0.0255,0.0255,0.0271,0.0273,0.0262,0.0262,0.0259,0.0252,0.025,0.0238,0.0221,0.0204,0.0198,0.0181,0.0174,0.0133,0.017,0.0173,0.0176,0.0177,0.0121,0.012,0.0139,0.0139,0.0139,0,0,0.0239,0.0252,0.0261,0.0273,0.027,0.0279,0.0263,0.0269,0.0275,0.0247,0.0254,0.0234,0.0204,0.0198,0.0193,0.0185,0.0148,0.0176,0.0179,0.0178,0.0121,0.0119,0.0117,0.0139,0.0139,0.0139,0,0,0.0259,0.027,0.029,0.0294,0.03,0.0296,0.0302,0.0299,0.0295,0.0297,0.0275,0.026,0.0242,0.0219,0.0204,0.0211,0.0167,0.0207,0.0229,0.0176,0.0174,0.0172,0.0113,0.0106,0.0208,0.0208,0.0208,0,0.0262,0.0293,0.0293,0.0311,0.0321,0.0308,0.0326,0.0319,0.0315,0.0312,0.0308,0.0268,0.0248,0.0225,0.0232,0.0218,0.018,0.0221,0.018,0.0177,0.0174,0.0115,0.0105,0.0211,0.021,0.021,0.021,0,0.0294,0.0318,0.033,0.0353,0.0359,0.0375,0.037,0.0371,0.0367,0.0357,0.034,0.0307,0.0282,0.0271,0.0258,0.0227,0.0204,0.0192,0.0174,0.0175,0.0113,0.0102,0.0214,0.0213,0.0213,0.0212,0,0,0.0305,0.0346,0.035,0.0376,0.0387,0.0401,0.0404,0.0406,0.0415,0.0392,0.0384,0.0352,0.0331,0.0312,0.0282,0.024,0.0187,0.0216,0.0212,0.0163,0.0064,0.007,0.0058,0.017,0.0169,0.0168,0.0027,0,0.033,0.0384,0.039,0.0436,0.0466,0.0455,0.0464,0.0461,0.0451,0.044,0.0384,0.0377,0.0346,0.0342,0.0289,0.0221,0.0162,0.0226,0.0065,0.006,0.0069,0.0047,0.0163,0.0019,0.0017,0.0015,0.0013,0,0.036,0.0398,0.0454,0.0498,0.0508,0.0531,0.0549,0.0556,0.0523,0.0511,0.0472,0.0433,0.0372,0.0344,0.0205,0.025,0.0159,0.0095,0.0087,0.0068,0.0046,0.0016,-0.0007,-0.0005,-0.0004,-0.0002,-0.0001,0,0.0388,0.0441,0.0496,0.0513,0.0555,0.0574,0.0592,0.0584,0.0612,0.0563,0.0571,0.0471,0.0445,0.0313,0.0189,0.0195,0.0023,0.0009,-0.0084,-0.0085,-0.0071,-0.0067,-0.0112,-0.0112,-0.0112,-0.0111,-0.0111,0,0.0421,0.0466,0.0524,0.0557,0.0627,0.063,0.0692,0.0682,0.0687,0.0725,0.0625,0.0618,0.0441,0.0328,0.0187,0.0025,0.0014,-0.0089,-0.0122,-0.0047,-0.0039,-0.008,-0.0074,-0.0117,-0.0115,-0.0114,-0.0113,0,0.0454,0.0485,0.0563,0.0624,0.065,0.0707,0.0788,0.0832,0.0818,0.0855,0.0849,0.0735,0.0585,0.0392,0.0174,0.005,-0.0122,-0.0184,-0.0095,-0.0119,-0.0203,-0.0193,-0.031,-0.0311,-0.0312,-0.0313,-0.0314,0,0.0479,0.0525,0.0624,0.0682,0.0722,0.0808,0.0871,0.0899,0.0953,0.0934,0.0954,0.082,0.0718,0.0406,0.019,-0.0111,-0.0146,-0.0254,-0.023,-0.0203,-0.0224,-0.0212,-0.0202,-0.0315,-0.0315,-0.0315,-0.0315,0,0.0534,0.0573,0.0635,0.0751,0.0841,0.0949,0.1036,0.1088,0.1115,0.1106,0.1047,0.0873,0.0688,0.0424,0.0189,-0.0023,-0.0193,-0.0263,-0.0263,-0.0241,-0.021,-0.0227,-0.0215,-0.0318,-0.0318,-0.0318,-0.0317,0,0.0579,0.063,0.071,0.0813,0.0932,0.1049,0.1096,0.1151,0.1197,0.117,0.1146,0.0927,0.0796,0.0469,0.0256,0.0043,-0.0012,-0.0087,-0.0097,-0.0097,0.0011,0.0085,0.0032,0,0,0,0,0,0.0621,0.0671,0.0763,0.088,0.1002,0.1072,0.1187,0.1223,0.1251,0.1229,0.1192,0.1016,0.0685,0.0533,0.0323,0.0233,-0.0054,-0.0022,-0.0145,-0.0334,-0.0331,-0.024,0,0,0,0,0,0,0.064,0.073,0.0761,0.0917,0.1005,0.1149,0.1229,0.1253,0.1237,0.1218,0.1049,0.0952,0.0634,0.0805,0.0313,0.0247,0.0137,-0.018,-0.0185,-0.0336,-0.0333,-0.033,-0.0236,0,0,0,0,0]}]]